{"data":{"norad_id":64160,"intl_designator":"2025-112Q","name":"STARLINK-34339","alt_names":[],"object_type":"PAYLOAD","status":"ACTIVE","operator":null,"country":"US","launch_date":"2025-05-27","launch_site_code":"AFWTR","launch_vehicle":null,"mission":null,"orbit_class":"UNKNOWN","rcs_meters":null,"size_class":null,"mass_kg":null,"dimensions":null,"purposes":["comms"],"wikipedia_slug":null,"has_3d_model":false,"image_url":null,"decayed_at":null,"tle_current":{"epoch":"2026-05-25T03:45:57.228768Z","epoch_age_seconds":61242,"freshness":"FRESH","line1":"1 64160U 25112Q   26145.15691237  .00005353  00000+0  37479-3 0  9998","line2":"2 64160  97.4484 196.5207 0000911 157.2185 202.9083 15.05651756 54818","mean_motion":15.05651756,"eccentricity":9.11e-5,"inclination_deg":97.4484,"raan_deg":196.5207,"arg_perigee_deg":157.2185,"mean_anomaly_deg":202.9083,"bstar":0.00037479,"rev_number":5481,"period_min":95.639645373615,"perigee_km":548.8746594323,"apogee_km":550.13687594457,"semimajor_km":6927.6427676884,"source":"CELESTRAK","updated_at":"2026-05-25T13:38:20.305710Z"}}}